www.pogodaiklimat.ru

Погода и климат >> Архив погоды >> Канада >> Онтарио >> Оттава


АРХИВ ПОГОДЫ в Оттаве

Время (UTC), дата Ветер
(напр.,м/с)
 
Видим.   Явления Облачность Т
(С)
Тd
(С)
f
(%)
Тe
(С)
Тes
(С)
Комфортность P
(гПа)
Po
(гПа)
Тmin
(С)
Tmax
(С)
R
(мм)
R24
(мм)
S
(см)
03 10.07 Ю 2 24 км 1/0
[]
+21.3 +14.4 65 +24 +24 комфорт 1016.5 1002.8
06 10.07 Ю 2 24 км ясно +18.8 +13.7 72 +20 +20 тепло 1015.9 1002.2 +13.3 +29.9
09 10.07 ЮЗ 2 24 км 6/0
[]
+16.8 +13.2 79 +17 +17 по сезону 1016.1 1002.4
12 10.07 З 3 24 км 5/0
[Ac As Ci fib]
+20.7 +15.2 71 +24 +27 комфорт 1016.9 1003.2 +15.9 +29.9
15 10.07 З 2 24 км 8/0
[]
+27.2 +16.0 50 +30 +40 душно 1016.3 1002.7
18 10.07 Ю 5 24 км 8/1 1500 м
[Cu hum Ac As Ci fib]
+30.2 +13.8 37 +32 +38 жарко 1014.9 1001.3 +15.9 +30.5
21 10.07 Ю 3 24 км 9/9 1500 м
[]
+30.0 +12.7 35 +31 +32 жарко 1013.9 1000.3
00 11.07 ЮВ 2 24 км 8/0
[Ac As Ci fib]
+25.4 +18.0 64 +30 +30 душно 1013.3 999.7 +15.9 +31.0
03 11.07 ЮВ 3 24 км 3/0
[]
+21.1 +16.1 73 +24 +24 комфорт 1012.6 999.0
06 11.07 ЮВ 2 24 км 8/0
[Ac As Ci fib]
+20.8 +17.7 82 +25 +25 комфорт 1011.3 997.8 +15.9 +31.0
09 11.07 СВ 3 24 км 9/9 1500 м
[]
+19.7 +16.7 83 +22 +22 комфорт 1010.5 996.9
12 11.07 В 3 24 км {дождь} 10/0
[Ac cast Ci sp]
+22.1 +18.9 82 +27 +29 душно 1010.1 996.5 +19.6 +31.0 0.0
15 11.07 ЮВ 4 24 км 10/10 1500 м
[]
+24.0 +20.9 83 +30 +30 очень
душно
1008.6 995.0
18 11.07 Ю 7 24 км 9/1 1000 м
[Cu hum Ac As Ci sp]
+29.1 +21.0 62 +37 +39 очень
душно
1005.7 992.2 +19.6 +29.5
21 11.07 0 16 км 10/10 1000 м
[]
+19.2 +18.0 93 1007.5 993.9
00 12.07 В 2 24 км {гроза, ливн. осадки} 9/4 1000 м
[Cu med, cong Ac As Cc]
+20.3 +19.2 93 +25 +25 комфорт 1004.9 991.3 +18.9 +30.1 19
03 12.07 С 3 16 км 10/10 200 м
[]
+19.5 +18.7 95 +22 +22 комфорт 1006.1 992.5
06 12.07 СЗ 2 12 км 10/10 100 м
[Sc]
+19.6 +19.1 97 +23 +23 комфорт 1005.2 991.7 +17.8 +30.1 211
09 12.07 З 3 6000 м 9/9 50 м
[]
+19.9 +19.5 98 +24 +24 комфорт 1005.7 992.1
12 12.07 СЗ 6 24 км {морось} 9/9 300 м
[Sc]
+19.6 +17.2 86 +22 +22 комфорт 1007.2 993.6 +17.8 +30.1 0.0
15 12.07 СЗ 5 24 км 10/10 300 м
[]
+20.1 +16.4 79 +23 +23 комфорт 1008.4 994.8
18 12.07 З 6 24 км 9/9 600 м
[Cu hum]
+21.5 +16.5 73 +25 +26 комфорт 1009.3 995.7 +17.8 +22.1
21 12.07 З 5 24 км 9/9 600 м
[]
+23.1 +16.6 67 +28 +28 душно 1008.7 995.1
00 13.07 З 3 24 км 1/1 1000 м
[Sc diur, vesp Ci sp]
+22.3 +16.4 69 +27 +27 душно 1009.2 995.6 +19.5 +24.4
03 13.07 Ю 2 24 км 1/0
[]
+18.0 +15.8 87 +19 +19 по сезону 1010.1 996.4
06 13.07 Ю 3 24 км ясно +17.1 +16.1 94 +17 +17 по сезону 1009.9 996.2 +16.8 +24.4 15
09 13.07 З 3 24 км 1/0
[]
+15.8 +15.2 96 +15 +15 прохладно 1010.4 996.7
12 13.07 З 2 24 км 1/0
[Ac As]
+19.6 +15.9 79 +22 +26 комфорт 1011.8 998.1 +15.7 +24.4
15 13.07 Ю 4 24 км ясно +24.1 +14.4 55 +27 +37 жарко 1011.4 997.7
18 13.07 ЮЗ 5 24 км 8/3 1000 м
[Cu hum Ac As Ci sp]
+26.6 +16.2 53 +30 +34 душно 1010.3 996.7 +15.7 +27.9
21 13.07 ЮЗ 8 24 км 9/9 1000 м
[]
+25.9 +18.4 63 +31 +31 очень
душно
1009.2 995.6
00 14.07 ЮЗ 4 24 км 9/8 600 м
[Cb calv Ac cuf]
+23.9 +18.9 74 +29 +29 душно 1009.7 996.1 +15.7 +28.1
03 14.07 Ю 1 24 км 9/0
[]
+17.4 +16.8 96 +18 +18 прохладно 1010.5 996.9
06 14.07 З 3 24 км {гроза, ливн. осадки} 6/0
[Ac As]
+17.5 +16.6 94 +17 +17 по сезону 1010.5 996.9 +15.7 +28.1 3 11
09 14.07 З 4 24 км 6/6 100 м
[]
+17.6 +16.9 96 +17 +17 по сезону 1011.9 998.3
12 14.07 СЗ 5 24 км 5/4 300 м
[Cu hum Ci fib]
+18.9 +16.4 85 +20 +21 тепло 1013.6 999.9 +17.0 +28.1
15 14.07 СЗ 5 24 км 6/6 600 м
[]
+21.1 +14.9 68 +24 +27 комфорт 1015.6 1001.8
18 14.07 СЗ 6 24 км 6/6 600 м
[Cu hum]
+22.9 +15.1 61 +27 +30 душно 1015.7 1002.0 +17.0 +23.1
21 14.07 З 7 24 км 5/5 1000 м
[]
+23.4 +13.8 55 +27 +28 душно 1016.1 1002.4
00 15.07 З 6 24 км 9/5 1000 м
[Cu hum Ci sp]
+21.1 +13.2 61 +23 +23 комфорт 1017.2 1003.4 +17.0 +24.4
03 15.07 ЮЗ 2 24 км 9/0
[]
+16.7 +13.3 80 +17 +17 прохладно 1017.5 1003.7
06 15.07 З 2 24 км 4/0
[Ci sp]
+14.1 +12.2 88 +14 +14 прохладно 1017.9 1004.1 +13.1 +24.4 211
09 15.07 З 2 24 км 8/0
[]
+12.6 +12.0 96 +12 +12 холодно 1018.2 1004.4
12 15.07 ЮЗ 2 24 км 6/0
[Ac As Ci fib]
+16.2 +14.3 89 +17 +20 по сезону 1018.9 1005.1 +11.3 +24.4
15 15.07 З 2 24 км 4/4 1000 м
[]
+23.3 +11.7 48 +26 +35 жарко 1018.8 1005.0
18 15.07 З 3 24 км 4/1 1500 м
[Cu hum Ci fib]
+26.2 +13.0 44 +28 +40 жарко 1017.9 1004.1 +11.3 +26.3
21 15.07 З 4 24 км 8/8 1500 м
[]
+27.5 +13.1 41 +29 +30 жарко 1016.6 1002.9
00 16.07 ЮЗ 2 24 км 3/0
[Ci sp]
+24.4 +16.3 61 +28 +28 душно 1016.1 1002.4 +11.3 +27.9
03 16.07 Ю 2 24 км ясно +19.8 +15.6 77 +23 +23 комфорт 1016.3 1002.6
06 16.07 Ю 3 24 км ясно +17.3 +14.7 85 +17 +17 по сезону 1015.9 1002.2 +11.3 +27.9
09 16.07 Ю 2 24 км 9/0
[]
+15.9 +14.3 90 +16 +16 по сезону 1015.2 1001.5
12 16.07 Ю 2 24 км 9/9 1500 м
[Sc]
+18.7 +16.0 84 +20 +21 тепло 1014.0 1000.3 +15.1 +27.9
15 16.07 ЮЗ 5 24 км 8/8 1500 м
[]
+24.5 +19.4 73 +30 +31 очень
душно
1013.2 999.5
18 16.07 ЮЗ 7 24 км 9/0
[Ac As]
+27.9 +20.9 66 +35 +37 очень
душно
1011.4 997.8 +15.1 +28.0
21 16.07 ЮЗ 6 24 км 6/6 1500 м
[]
+29.9 +21.9 62 +38 +40 очень
душно
1010.2 996.6

 

Местоположение метеостанции Оттава (Онтарио, Канада): широта 45.32 долгота -75.66 высота над уровнем моря 114 м.

В архиве по умолчанию представлена погода в Оттаве за последнюю неделю. Архивные данные за месяц целиком и за предыдущие месяцы, начиная с января 2011 года, Вы можете получить, выбрав интересующий диапазон дат из раскрывающегося списка и нажав кнопку "Ввод!".


*Определитесь, кто Вы:
робот инопланетянин человек

Внимание! Время в таблицах - всемирное. Для получения местного времени необходимо прибавить поправку, которая равна -5 ч.

Смотрите также архив погоды в соседних городах и на ближайших метеорологических станциях:

Погода в Оттава парке (Онтарио, Канада) (8 км)
Погода в Кемптвилле (Онтарио, Канада) (36 км)
Погода в Винчестере (Онтарио, Канада) (40 км)
Погода в Бивер Майнс (Альберта, Канада) (55 км)
Погода в Хай Фолс (Квебек, Канада) (57 км)
Погода в Кейп-Дорсете (Северо-Западные территории, Канада) (67 км)
Погода в Калгари аэропорту (Альберта, Канада) (83 км)
Погода в Слейв Лейк (Онтарио, Канада) (85 км)
Погода в Маккензи (Британская Колумбия, Канада) (85 км)
Погода в Энукжууке (Квебек, Канада) (106 км)

Пояснения к столбцам:

Ветер - указаны скорость ветра в м/с - средняя за 10 мин, порывы в срок и между сроками (в фигурных скобках) и направление, откуда дует ветер: С - северный, СВ - северо-восточный, В - восточный, ЮВ - юго-восточный, Ю - южный, ЮЗ - юго-западный, З - западный, СЗ - северо-западный.
Видимость - горизонтальная дальность видимости в метрах или километрах. При видимости от 1 до 10 км при отсутствии осадков обычно наблюдается дымка, при ухудшении видимости до 1 км и менее - туман. В сухую погоду видимость может ухудшаться дымом, пылью или мглою.
Явления - указаны атмосферные явления, наблюдавшиеся в срок или в последний час перед сроком; фигурными скобками обозначены явления, наблюдавшиеся между сроками (за 1-3 часа до срока); квадратными скобками обозначены град или гололедные отложения с указанием их диаметра в мм.
Облачность - указаны через наклонную черту общая и нижняя облачность в баллах и высота нижней границы облаков в метрах; квадратными скобками обозначены формы облаков: Ci - перистые, Cs - перисто-слоистые, Cc - перисто-кучевые, Ac - высококучевые, As - высокослоистые, Sc - слоисто-кучевые, Ns - слоисто-дождевые, Cu - кучевые, Cb - кучево-дождевые. Подробнее классификацию облаков см. в Атласе облаков (PDF).
T - Температура воздуха - температура, измеренная на высоте 2 м над землей.
Td - Температура точки росы - температура, при понижении до которой содержащийся в воздухе водяной пар достигнет насыщения.
f - Относительная влажность воздуха - влажноcть воздуха, измеренная на высоте 2 м над землей.
Te - Эффективная температура - температура, которую ощущает одетый по сезону человек в тени. Характеристика душности погоды. При расчете учитывается влияние влажности воздуха и скорости ветра на теплоощущения человека.
Tes - Эффективная температура на солнце - температура, которую ощущает человек, с поправкой на солнечный нагрев. Характеристика знойности погоды. Зависит от высоты солнца над горизонтом, облачности и скорости ветра. Ночью, в пасмурную погоду, а также при ветре 12 м/с и более поправка равна нулю.
P - Атмосферное давление - приведенное к уровню моря атмосферное давление.
Po - Атмосферное давление - измеренное на уровне метеостанции атмосферное давление.
Tmin - Минимальная температура - минимум температуры воздуха на высоте 2 м над землей.
Tmax - Максимальная температура - максимум температуры воздуха на высоте 2 м над землей.
R - Количество осадков - Количество выпавших осадков за период времени, мм. При наведении курсора мыши на число - период времени, за который выпало указанное количество осадков.
R24 - Количество осадков - Количество выпавших осадков за 24 часа, мм.
S - Снежный покров - Высота снежного покрова, см. При наведении курсора мыши на число - состояние снежного покрова и степень покрытия местности в баллах.